Orbital Elements at Epoch 2459200.5 (2020-Dec-17.0) TDB
Reference: JPL 25 (heliocentric ecliptic J2000)
Element | Value | Uncertainty (1-sigma) | Units |
e | .1249154523253855 | 3.361e-08 | |
a | 2.767819135315336 | 1.234e-08 | au |
q | 2.422075756072564 | 9.4711e-08 | au |
i | 8.544013901940614 | 5.4308e-06 | deg |
node | 202.3829575525851 | 2.5653e-05 | deg |
peri | 259.5322414402573 | 3.6091e-05 | deg |
M | 16.17235531464063 | 2.3452e-05 | deg |
tp | 2459124.942816297621 (2020-Oct-02.44281630) | 0.00010953 | TDB |
period | 1681.91865709457 4.60 | 1.1248e-05 3.08e-08 | d yr |
n | .2140412667886578 | 1.4314e-09 | deg/d |
Q | 3.113562514558109 | 1.3881e-08 | au |
|
| | Orbit Determination Parameters
Additional Information
|